Satellite: MET-2/21 Catalog number: 22782 Epoch time: 07025.47434837 Element set: 731 Inclination: 082.5500 deg RA of node: 155.1283 deg Eccentricity: 0.0020908 Arg of perigee: 276.9696 deg Mean anomaly: 082.9092 deg Mean motion: 13.83613700 rev/day Decay rate: -2.7e-07 rev/day^2 Epoch rev: 67678 Checksum: 317
Satellite: OKEAN-4 Catalog number: 23317 Epoch time: 07024.54892334 Element set: 0168 Inclination: 082.5376 deg RA of node: 070.5415 deg Eccentricity: 0.0022678 Arg of perigee: 010.2080 deg Mean anomaly: 349.9578 deg Mean motion: 14.82458881 rev/day Decay rate: 9.4e-07 rev/day^2 Epoch rev: 66277 Checksum: 321
Satellite: NOAA-14 Catalog number: 23455 Epoch time: 07024.54735916 Element set: 0479 Inclination: 099.0097 deg RA of node: 089.8509 deg Eccentricity: 0.0010024 Arg of perigee: 143.5810 deg Mean anomaly: 216.6035 deg Mean motion: 14.13693457 rev/day Decay rate: -1.71e-06 rev/day^2 Epoch rev: 62234 Checksum: 302
Satellite: SICH-1 Catalog number: 23657 Epoch time: 07023.61301023 Element set: 0969 Inclination: 082.5263 deg RA of node: 212.3113 deg Eccentricity: 0.0024110 Arg of perigee: 002.4717 deg Mean anomaly: 357.6611 deg Mean motion: 14.81442862 rev/day Decay rate: -7.1e-07 rev/day^2 Epoch rev: 61462 Checksum: 252
Satellite: NOAA-15 Catalog number: 25338 Epoch time: 07024.82540677 Element set: 844 Inclination: 098.5264 deg RA of node: 025.5881 deg Eccentricity: 0.0011543 Arg of perigee: 088.5394 deg Mean anomaly: 271.7118 deg Mean motion: 14.24623203 rev/day Decay rate: 8.0e-08 rev/day^2 Epoch rev: 45227 Checksum: 303
Satellite: RESURS Catalog number: 25394 Epoch time: 07024.74107293 Element set: 0569 Inclination: 098.4649 deg RA of node: 084.8084 deg Eccentricity: 0.0000624 Arg of perigee: 247.3146 deg Mean anomaly: 112.7967 deg Mean motion: 14.24125561 rev/day Decay rate: 2.7e-07 rev/day^2 Epoch rev: 44393 Checksum: 306
Satellite: FENGYUN1 Catalog number: 25730 Epoch time: 07016.60112448 Element set: 932 Inclination: 098.6469 deg RA of node: 006.2281 deg Eccentricity: 0.0014921 Arg of perigee: 004.1687 deg Mean anomaly: 356.0079 deg Mean motion: 14.06556409 rev/day Decay rate: 4.8e-07 rev/day^2 Epoch rev: 39613 Checksum: 290
Satellite: OKEAN-0 Catalog number: 25860 Epoch time: 07024.53530521 Element set: 0961 Inclination: 097.7299 deg RA of node: 033.5044 deg Eccentricity: 0.0001763 Arg of perigee: 092.9525 deg Mean anomaly: 267.1892 deg Mean motion: 14.73425484 rev/day Decay rate: 6.8e-07 rev/day^2 Epoch rev: 40434 Checksum: 302
Satellite: NOAA-16 Catalog number: 26536 Epoch time: 07024.81001718 Element set: 246 Inclination: 099.1001 deg RA of node: 359.3868 deg Eccentricity: 0.0010169 Arg of perigee: 213.6158 deg Mean anomaly: 146.4334 deg Mean motion: 14.12400201 rev/day Decay rate: -3.9e-07 rev/day^2 Epoch rev: 32686 Checksum: 274
Satellite: NOAA-17 Catalog number: 27453 Epoch time: 07024.53317989 Element set: 0262 Inclination: 098.5980 deg RA of node: 097.1819 deg Eccentricity: 0.0012455 Arg of perigee: 149.7168 deg Mean anomaly: 210.4752 deg Mean motion: 14.23847996 rev/day Decay rate: 5.7e-07 rev/day^2 Epoch rev: 23827 Checksum: 343
Satellite: NOAA-18 Catalog number: 28654 Epoch time: 07024.59240796 Element set: 0812 Inclination: 098.8146 deg RA of node: 328.3982 deg Eccentricity: 0.0013937 Arg of perigee: 317.5240 deg Mean anomaly: 042.4827 deg Mean motion: 14.11031932 rev/day Decay rate: 1.47e-06 rev/day^2 Epoch rev: 08660 Checksum: 310
/EX SB KEPS @ AMSAT $ORB07025.M Orbital Elements 07025.MISC
HR AMSAT ORBITAL ELEMENTS FOR MANNED AND MISCELLANEOUS SATELLITES FROM WA5QGD FORT WORTH,TX January 25, 2007 Send SUBSCRIBE KEPS/UNSUBSCRIBE KEPS to majordomo@amsat.org only BID: ORB07025.M TO ALL RADIO AMATEURS BT
Satellite: HUBBLE Catalog number: 20580 Epoch time: 07024.37791882 Element set: 0798 Inclination: 028.4684 deg RA of node: 047.8413 deg Eccentricity: 0.0003327 Arg of perigee: 011.9411 deg Mean anomaly: 348.1259 deg Mean motion: 15.00179821 rev/day Decay rate: 3.75e-06 rev/day^2 Epoch rev: 71834 Checksum: 301
Satellite: UARS Catalog number: 21701 Epoch time: 07025.63763781 Element set: 979 Inclination: 056.9777 deg RA of node: 211.8010 deg Eccentricity: 0.0090292 Arg of perigee: 277.1551 deg Mean anomaly: 081.9241 deg Mean motion: 15.46471561 rev/day Decay rate: 2.698e-05 rev/day^2 Epoch rev: 84368 Checksum: 322
Satellite: PO-34 Catalog number: 25520 Epoch time: 07024.95067331 Element set: 0662 Inclination: 028.4611 deg RA of node: 347.3548 deg Eccentricity: 0.0005605 Arg of perigee: 139.3178 deg Mean anomaly: 220.7835 deg Mean motion: 15.16911065 rev/day Decay rate: 5.79e-06 rev/day^2 Epoch rev: 45575 Checksum: 305
Satellite: ISS Catalog number: 25544 Epoch time: 07025.85348500 Element set: 517 Inclination: 051.6349 deg RA of node: 119.5106 deg Eccentricity: 0.0023020 Arg of perigee: 131.7718 deg Mean anomaly: 331.8482 deg Mean motion: 15.77472143 rev/day Decay rate: 1.4229e-04 rev/day^2 Epoch rev: 46829 Checksum: 290
Satellite: OO-38 Catalog number: 26063 Epoch time: 07023.50247130 Element set: 0823 Inclination: 100.2150 deg RA of node: 359.4697 deg Eccentricity: 0.0036767 Arg of perigee: 206.4625 deg Mean anomaly: 153.4681 deg Mean motion: 14.35793560 rev/day Decay rate: -1.6e-07 rev/day^2 Epoch rev: 36629 Checksum: 297
Satellite: NO-45 Catalog number: 26932 Epoch time: 07024.86961192 Element set: 0520 Inclination: 067.0526 deg RA of node: 156.4058 deg Eccentricity: 0.0003461 Arg of perigee: 274.6521 deg Mean anomaly: 085.4185 deg Mean motion: 14.29547056 rev/day Decay rate: -8.2e-07 rev/day^2 Epoch rev: 27765 Checksum: 312
Satellite: UWE-1 Catalog number: 28892 Epoch time: 07025.74802273 Element set: 661 Inclination: 098.1443 deg RA of node: 285.1008 deg Eccentricity: 0.0016942 Arg of perigee: 194.2094 deg Mean anomaly: 165.8616 deg Mean motion: 14.59457096 rev/day Decay rate: 1.07e-06 rev/day^2 Epoch rev: 6643 Checksum: 314
Satellite: CO-58 Catalog number: 28895 Epoch time: 07025.73146544 Element set: 643 Inclination: 098.1471 deg RA of node: 285.2434 deg Eccentricity: 0.0017526 Arg of perigee: 194.3543 deg Mean anomaly: 165.7147 deg Mean motion: 14.59506646 rev/day Decay rate: 5.7e-07 rev/day^2 Epoch rev: 6631 Checksum: 330
Satellite: NCUBE2 Catalog number: 28897 Epoch time: 07024.65661717 Element set: 0176 Inclination: 098.1465 deg RA of node: 284.1552 deg Eccentricity: 0.0016625 Arg of perigee: 199.9064 deg Mean anomaly: 160.1496 deg Mean motion: 14.59665793 rev/day Decay rate: 1.53e-06 rev/day^2 Epoch rev: 05843 Checksum: 340
Satellite: NMARS Catalog number: 29662 Epoch time: 07024.71763034 Element set: 0054 Inclination: 051.6494 deg RA of node: 123.3725 deg Eccentricity: 0.0012509 Arg of perigee: 144.0832 deg Mean anomaly: 216.1013 deg Mean motion: 15.86327531 rev/day Decay rate: 5.2151e-04 rev/day^2 Epoch rev: 00539 Checksum: 262
Satellite: FCAL Catalog number: 29664 Epoch time: 07025.69989666 Element set: 36 Inclination: 051.6383 deg RA of node: 118.6658 deg Eccentricity: 0.0016458 Arg of perigee: 144.2460 deg Mean anomaly: 215.9665 deg Mean motion: 15.83447222 rev/day Decay rate: 1.7028e-04 rev/day^2 Epoch rev: 552 Checksum: 324
/EX
participants (1)
-
Ray Hoad